This is the latest recevied weather packets stored in our database for station/object WX4LTG. If no packets are shown the sender has not sent any weather packets the latest 10 day(s).
| Time | Temp. | Humidity | Pressure | Rain* | Wind** | Luminosity | Snow |
|---|---|---|---|---|---|---|---|
| 1777475174 | 21.11° C | 26% | 1015.8 hPa | 0 mm | - | 183 W/m² | - |
| 1777474870 | 20.56° C | 25% | 1015.7 hPa | 0 mm | - | 260 W/m² | - |
| 1777474565 | 20.56° C | 25% | 1015.7 hPa | 0 mm | - | 236 W/m² | - |
| 1777474263 | 20.56° C | 25% | 1015.7 hPa | 0 mm | - | 225 W/m² | - |
| 1777473960 | 20.56° C | 26% | 1015.6 hPa | 0 mm | - | 213 W/m² | - |
| 1777473657 | 20° C | 26% | 1015.4 hPa | 0 mm | - | 184 W/m² | - |
| 1777473353 | 20° C | 26% | 1015.7 hPa | 0 mm | - | 154 W/m² | - |
| 1777473049 | 18.89° C | 28% | 1015.7 hPa | 0 mm | - | 138 W/m² | - |
| 1777472746 | 18.89° C | 28% | 1015.7 hPa | 0 mm | - | 133 W/m² | - |
| 1777472442 | 18.89° C | 27% | 1015.7 hPa | 0 mm | - | 112 W/m² | - |
| 1777472140 | 18.33° C | 28% | 1015.5 hPa | 0 mm | - | 130 W/m² | - |
| 1777471840 | 18.33° C | 28% | 1015.4 hPa | 0 mm | - | 101 W/m² | - |
| 1777471537 | 17.78° C | 28% | 1015.5 hPa | 0 mm | - | 105 W/m² | - |
| 1777471233 | 17.78° C | 28% | 1015.5 hPa | 0 mm | - | 109 W/m² | - |
| 1777470931 | 17.78° C | 28% | 1015.7 hPa | 0 mm | - | 91 W/m² | - |
| 1777470628 | 17.22° C | 30% | 1015.6 hPa | 0 mm | - | 80 W/m² | - |
| 1777470323 | 17.22° C | 31% | 1015.3 hPa | 0 mm | - | 68 W/m² | - |
| 1777470020 | 16.11° C | 32% | 1015.4 hPa | 0 mm | - | 55 W/m² | - |
| 1777469715 | 16.11° C | 31% | 1015.3 hPa | 0 mm | - | 44 W/m² | - |
| 1777469412 | 15.56° C | 31% | 1015.1 hPa | 0 mm | - | 38 W/m² | - |
| 1777469107 | 16.11° C | 31% | 1015.2 hPa | 0 mm | - | 29 W/m² | - |
| 1777468807 | 16.11° C | 30% | 1015 hPa | 0 mm | - | 28 W/m² | - |
| 1777468504 | 15.56° C | 33% | 1015.2 hPa | 0 mm | - | 30 W/m² | - |
| 1777468201 | 15.56° C | 33% | 1015.4 hPa | 0 mm | - | 23 W/m² | - |
| 1777467897 | 15° C | 32% | 1015.1 hPa | 0 mm | - | 19 W/m² | - |
* Rain latest hour (hover to see other rain measurements)
** Current wind speed in m/s (hover to see current wind gust speed)